Flag for Greece Weather past 2 weeks in Santorini, Greece

Now
77 °F

Clear.


Feels Like: 79 °F
Forecast: 78 / 82 °F
Wind: 9 mph from West

Location: Santorini Island

Current Time: Aug 5, 2015 at 1:39:09 AM

Latest Report: Aug 5, 2015 at 12:50 AM


Visibility: 10 mi

Pressure: 29.80 "Hg

Humidity: 69%

Dew point: 66 °F

Location of SantoriniLocation

Historic Weather in Santorini — Graph

°F

Santorini temperature yesterday

Maximum temperature yesterday: 86 °F (at 10:20 AM)
Minimum temperature yesterday: 77 °F (at 2:50 AM)
Average temperature yesterday: 81 °F

Past Weeks' High & Low Weather Summary

 TemperatureHumidityPressure
High97 °F (Jul 30, 2:50 PM)94% (Jul 25, 1:50 AM)29.92 "Hg (Jul 25, 1:50 AM)
Low70 °F (Jul 25, 1:50 AM)27% (Jul 25, 6:50 PM)29.68 "Hg (Jul 21, 4:50 AM)
Average82 °F63%29.77 "Hg
* Reported Jul 21 12:20 AM — Aug 5 12:20 AM, Santorini, Weather by CustomWeather, © 2015

Note: Actual official high and low records may vary slightly from our data, if they occured in-between our weather recording intervals... More about our weather records

Advertising

Santorini weather history for previous 24 hours

 ConditionsComfort  
Time TempWeatherWind HumidityBarometerVisibility
12:20 AM
Wed, Aug 5
79 °FClear.9 mph61%29.80 "Hg10 mi
11:50 PM
Tue, Aug 4
77 °FClear.8 mph65%29.80 "Hg10 mi
11:20 PM77 °FClear.7 mph65%29.80 "Hg10 mi
10:50 PM77 °FClear.6 mph69%29.80 "Hg10 mi
10:20 PM77 °FClear.No wind69%29.80 "Hg10 mi
9:50 PM77 °FClear.No wind69%29.80 "Hg10 mi
9:20 PM79 °FSunny.No wind70%29.80 "Hg10 mi
8:50 PM81 °FSunny.6 mph62%29.80 "Hg10 mi
8:20 PM81 °FSunny.7 mph66%29.80 "Hg10 mi
7:50 PM82 °FSunny.7 mph58%29.80 "Hg10 mi
7:20 PM82 °FSunny.6 mph62%29.77 "Hg10 mi
6:50 PM82 °FSunny.9 mph58%29.77 "Hg10 mi
6:20 PM84 °FSunny.8 mph58%29.77 "Hg10 mi
5:50 PM84 °FSunny.9 mph58%29.80 "Hg10 mi
5:20 PM86 °FSunny.12 mph52%29.80 "Hg10 mi
4:50 PM84 °FSunny.9 mph58%29.80 "Hg10 mi
4:20 PM82 °FSunny.8 mph62%29.80 "Hg10 mi
3:50 PM84 °FSunny.7 mph62%29.80 "Hg10 mi
3:20 PM82 °FSunny.9 mph66%29.83 "Hg10 mi
2:50 PM84 °FSunny.7 mph62%29.83 "Hg10 mi
2:20 PM82 °FSunny.10 mph66%29.83 "Hg10 mi
1:50 PM86 °FSunny.15 mph49%29.83 "Hg10 mi
1:20 PM84 °FSunny.8 mph58%29.83 "Hg10 mi
12:50 PM82 °FSunny.12 mph66%29.83 "Hg10 mi
12:20 PM86 °FSunny.25 mph49%29.83 "Hg10 mi
11:50 AM86 °FSunny.13 mph55%29.83 "Hg10 mi
11:20 AM84 °FSunny.14 mph62%29.83 "Hg10 mi
10:50 AM84 °FSunny.12 mph58%29.83 "Hg10 mi
10:20 AM86 °FSunny.8 mph52%29.83 "Hg10 mi
9:50 AM82 °FSunny.8 mph62%29.83 "Hg10 mi
9:20 AM82 °FSunny.10 mph62%29.83 "Hg10 mi
8:20 AM81 °FSunny.13 mph66%29.83 "Hg10 mi
7:50 AM81 °FSunny.8 mph66%29.83 "Hg10 mi
7:20 AM79 °FClear.10 mph70%29.83 "Hg10 mi
6:50 AM77 °FClear.12 mph79%29.80 "Hg10 mi
6:20 AM77 °FClear.9 mph79%29.80 "Hg10 mi
5:50 AM77 °FClear.10 mph79%29.80 "Hg10 mi
5:20 AM77 °FClear.9 mph79%29.80 "Hg10 mi
4:50 AM77 °FClear.9 mph79%29.80 "Hg10 mi
4:20 AM77 °FWarm.8 mph79%29.83 "HgN/A
3:50 AM77 °FWarm.7 mph83%29.83 "HgN/A
3:20 AM77 °FWarm.7 mph83%29.83 "HgN/A
2:50 AM77 °FClear.9 mph79%29.83 "Hg10 mi
2:20 AM79 °FClear.8 mph74%29.83 "Hg10 mi
1:50 AM79 °FClear.9 mph74%29.86 "Hg10 mi
Weather by CustomWeather, © 2015

See weather overviewHow to use our weather pages